Location: Haulchin
(50.3172°N, 3.4360°E)
Time: 13:22:51
(UTC+00:00)

Okean 3 - Pass Details

Date: 23 May 2024
Orbit: 562 x 582 km, 82.5° (Epoch: 16 June)

Event Time Altitude Azimuth Distance (km) Brightness Sun altitude
Exits shadow 01:34:54 22° 240° (WSW) 1,266 4.7 -14.9°
Maximum altitude 01:36:51 33° 288° (WNW) 955 4.4 -14.7°
Drops below altitude 10° 01:40:36 10° 354° (N) 1,870 6.9 -14.4°
Sets 01:42:58 0° 4° (N) 2,774 8.2 -14.3°
